Location: Boiro
(42.6475°N, 8.8834°W)
Time: 00:59:50
(UTC+01:00)

S-56A Canister/Altair - Pass Details

Date: 08 December 2021
Orbit: 634 x 2499 km, 38.9° (Epoch: 26 January)

Event Time Altitude Azimuth Distance (km) Brightness Sun altitude
Exits shadow 06:22:31 12° 188° (S) 2,079 9.7 -26.8°
Drops below altitude 10° 06:23:01 10° 183° (S) 2,166 9.9 -26.7°
Sets 06:26:00 0° 160° (SSE) 2,961 10.9 -26.2°
